This is the latest recevied weather packets stored in our database for station/object EA1HTW-13. If no packets are shown the sender has not sent any weather packets the latest 10 day(s).
| Time | Temp. | Humidity | Pressure | Rain* | Wind** | Luminosity | Snow |
|---|---|---|---|---|---|---|---|
| 1777674735 | 16.11° C | 66% | 1011.9 hPa | 0 mm | - | - | - |
| 1777674194 | 16.67° C | 66% | 1011.8 hPa | 0 mm | - | - | - |
| 1777673654 | 16.67° C | 66% | 1012 hPa | 0 mm | - | - | - |
| 1777673115 | 16.67° C | 65% | 1012 hPa | 0 mm | - | - | - |
| 1777672574 | 16.67° C | 65% | 1012 hPa | 0 mm | - | - | - |
| 1777672034 | 16.67° C | 65% | 1012.1 hPa | 0 mm | - | - | - |
| 1777671495 | 16.67° C | 65% | 1012.1 hPa | 0 mm | - | - | - |
| 1777670955 | 16.67° C | 65% | 1012.3 hPa | 0 mm | - | - | - |
| 1777670415 | 16.67° C | 64% | 1012.2 hPa | 0 mm | - | - | - |
| 1777669875 | 17.22° C | 63% | 1012.1 hPa | 0 mm | - | - | - |
| 1777669334 | 17.22° C | 62% | 1012.2 hPa | 0 mm | - | - | - |
| 1777668795 | 17.22° C | 61% | 1012.1 hPa | 0 mm | - | - | - |
| 1777668255 | 17.22° C | 59% | 1012.2 hPa | 0 mm | - | - | - |
| 1777667714 | 17.22° C | 58% | 1012.3 hPa | 0 mm | - | - | - |
| 1777667175 | 17.22° C | 58% | 1012 hPa | 0 mm | - | - | - |
| 1777666635 | 17.22° C | 58% | 1012.1 hPa | 0 mm | - | - | - |
| 1777666094 | 17.22° C | 60% | 1012 hPa | 0 mm | - | - | - |
| 1777665555 | 17.22° C | 61% | 1011.9 hPa | 0 mm | - | - | - |
| 1777665014 | 17.22° C | 61% | 1012.1 hPa | 0 mm | - | - | - |
| 1777664475 | 17.22° C | 63% | 1012.1 hPa | 0 mm | - | - | - |
| 1777663934 | 17.22° C | 62% | 1012.1 hPa | 0 mm | - | - | - |
| 1777663394 | 17.78° C | 59% | 1012 hPa | 0 mm | - | - | - |
| 1777662854 | 17.78° C | 58% | 1011.8 hPa | 0 mm | - | - | - |
| 1777662315 | 17.78° C | 56% | 1011.9 hPa | 0 mm | - | - | - |
| 1777661775 | 17.78° C | 57% | 1011.7 hPa | 0 mm | - | - | - |
* Rain latest hour (hover to see other rain measurements)
** Current wind speed in m/s (hover to see current wind gust speed)